STARLINK-34050

Last updated on Thu Jul 03 2025 00:02:06 GMT+0000 (Coordinated Universal Time)

1 64331U 25124Q 25183.58335648 .00047439 00000+0 81065-3 0 9991 2 64331 43.0002 98.8747 0001726 257.4268 176.8997 15.50540342 4584
UTC large
Height (km)
Speed (km/s)
/
Latitude / Longitude
Inclination (degrees)
Orbital Period (minutes)
Azimuth
Elevation
Range (km)
Doppler Factor

Next 0 passes for location: London (51.5072 / 0.1276)

Sorry there are no passes over London.